• In Deutschland
  • Länderverzeichnis
  • Für 7 Tage
  • Wassertemperatur
  • Satellitenkarten
  • Wetterkarte
  • Widgets
  • user-avatar
    Anmelden

    Stündliche Wetter Angern

    Heute, 18 Februar, Sonntag

    Zeit Temperatur Niederschläge Wind Luftdruck Luftfeuchtigkeit
    00:00 0°C° 0 mm 1 m/S 765 mmHg 93%
    01:00 -1°C° 0 mm 0 m/S 766 mmHg 94%
    02:00 -1°C° 0 mm 0 m/S 766 mmHg 94%
    03:00 -1°C° 0 mm 0 m/S 766 mmHg 94%
    04:00 -1°C° 0 mm 0 m/S 766 mmHg 94%
    05:00 -1°C° 0 mm 0 m/S 766 mmHg 94%
    06:00 -1°C° 0 mm 0 m/S 766 mmHg 95%
    07:00 0°C° 0 mm 1 m/S 767 mmHg 95%
    08:00 +1°C° 0 mm 1 m/S 767 mmHg 90%
    09:00 +2°C° 0 mm 1 m/S 767 mmHg 85%
    10:00 +2°C° 0 mm 2 m/S 767 mmHg 80%
    11:00 +3°C° 0 mm 2 m/S 767 mmHg 75%
    12:00 +4°C° 0 mm 2 m/S 767 mmHg 69%
    13:00 +5°C° 0 mm 2 m/S 767 mmHg 64%
    14:00 +5°C° 0 mm 2 m/S 766 mmHg 65%
    15:00 +5°C° 0 mm 2 m/S 766 mmHg 66%
    16:00 +5°C° 0 mm 2 m/S 765 mmHg 67%
    17:00 +3°C° 0 mm 2 m/S 766 mmHg 73%
    18:00 +2°C° 0 mm 2 m/S 766 mmHg 79%
    19:00 -1°C° 0 mm 2 m/S 766 mmHg 85%
    20:00 -1°C° 0 mm 2 m/S 766 mmHg 86%
    21:00 -1°C° 0 mm 2 m/S 765 mmHg 88%
    22:00 -2°C° 0 mm 2 m/S 765 mmHg 89%
    23:00 -2°C° 0 mm 2 m/S 765 mmHg 90%

    Morgen, 19 Februar, Montag

    Zeit Temperatur Niederschläge Wind Luftdruck Luftfeuchtigkeit
    00:00 -2°C° 0 mm 2 m/S 765 mmHg 90%
    01:00 -2°C° 0 mm 2 m/S 765 mmHg 91%
    02:00 -2°C° 0 mm 2 m/S 764 mmHg 90%
    03:00 -2°C° 0 mm 2 m/S 764 mmHg 90%
    04:00 0°C° 0 mm 1 m/S 764 mmHg 89%
    05:00 0°C° 0 mm 1 m/S 763 mmHg 88%
    06:00 0°C° 0 mm 1 m/S 763 mmHg 87%
    07:00 0°C° 0 mm 1 m/S 763 mmHg 86%
    08:00 +1°C° 0 mm 1 m/S 763 mmHg 81%
    09:00 +2°C° 0 mm 1 m/S 763 mmHg 75%
    10:00 +3°C° 0 mm 1 m/S 763 mmHg 70%
    11:00 +4°C° 0 mm 1 m/S 763 mmHg 65%
    12:00 +5°C° 0 mm 1 m/S 762 mmHg 60%
    13:00 +7°C° 0 mm 1 m/S 762 mmHg 55%
    14:00 +6°C° 0 mm 1 m/S 761 mmHg 57%
    15:00 +6°C° 0 mm 1 m/S 761 mmHg 59%
    16:00 +6°C° 0 mm 1 m/S 761 mmHg 61%
    17:00 +5°C° 0 mm 1 m/S 761 mmHg 64%
    18:00 +4°C° 0 mm 1 m/S 761 mmHg 68%
    19:00 +2°C° 0 mm 1 m/S 761 mmHg 72%
    20:00 +2°C° 0 mm 1 m/S 760 mmHg 73%
    21:00 +2°C° 0 mm 1 m/S 760 mmHg 74%
    22:00 +2°C° 0 mm 1 m/S 760 mmHg 75%
    23:00 +2°C° 0 mm 1 m/S 760 mmHg 76%

    übermorgen, 20 Februar, Dienstag

    Zeit Temperatur Niederschläge Wind Luftdruck Luftfeuchtigkeit
    00:00 +1°C° 0 mm 1 m/S 760 mmHg 77%
    01:00 +1°C° 0 mm 1 m/S 760 mmHg 77%
    02:00 +1°C° 0 mm 1 m/S 760 mmHg 78%
    03:00 +1°C° 0 mm 1 m/S 759 mmHg 78%
    04:00 +1°C° 0 mm 1 m/S 759 mmHg 79%
    05:00 0°C° 0 mm 1 m/S 759 mmHg 80%
    06:00 0°C° 0 mm 1 m/S 759 mmHg 81%
    07:00 -2°C° 0 mm 2 m/S 759 mmHg 82%
    08:00 -1°C° 0 mm 2 m/S 760 mmHg 76%
    09:00 +1°C° 0 mm 2 m/S 760 mmHg 70%
    10:00 +2°C° 0 mm 2 m/S 760 mmHg 64%
    11:00 +2°C° 0 mm 3 m/S 760 mmHg 60%
    12:00 +3°C° 0 mm 3 m/S 760 mmHg 56%
    13:00 +4°C° 0 mm 3 m/S 760 mmHg 52%
    14:00 +4°C° 0 mm 3 m/S 760 mmHg 54%
    15:00 +4°C° 0 mm 3 m/S 760 mmHg 55%
    16:00 +4°C° 0 mm 3 m/S 760 mmHg 57%
    17:00 +2°C° 0 mm 3 m/S 760 mmHg 64%
    18:00 0°C° 0 mm 3 m/S 761 mmHg 70%
    19:00 -1°C° 0 mm 2 m/S 761 mmHg 77%
    20:00 -2°C° 0 mm 2 m/S 762 mmHg 78%
    21:00 -2°C° 0 mm 2 m/S 762 mmHg 80%
    22:00 -3°C° 0 mm 2 m/S 762 mmHg 82%
    23:00 -3°C° 0 mm 2 m/S 763 mmHg 84%

    21 Februar, Mittwoch

    Zeit Temperatur Niederschläge Wind Luftdruck Luftfeuchtigkeit
    00:00 -3°C° 0 mm 2 m/S 763 mmHg 85%
    01:00 -3°C° 0 mm 2 m/S 763 mmHg 86%
    02:00 -3°C° 0 mm 2 m/S 763 mmHg 87%
    03:00 -3°C° 0 mm 2 m/S 763 mmHg 87%
    04:00 -4°C° 0 mm 2 m/S 763 mmHg 88%
    05:00 -4°C° 0 mm 2 m/S 763 mmHg 88%
    06:00 -4°C° 0 mm 2 m/S 763 mmHg 88%
    07:00 -4°C° 0 mm 2 m/S 763 mmHg 88%
    08:00 -3°C° 0 mm 2 m/S 764 mmHg 82%
    09:00 -2°C° 0 mm 2 m/S 764 mmHg 76%
    10:00 -1°C° 0 mm 2 m/S 764 mmHg 70%
    11:00 +1°C° 0 mm 2 m/S 764 mmHg 66%
    12:00 +1°C° 0 mm 3 m/S 763 mmHg 62%
    13:00 +2°C° 0 mm 3 m/S 763 mmHg 58%
    14:00 +1°C° 0 mm 3 m/S 763 mmHg 59%
    15:00 +1°C° 0 mm 3 m/S 763 mmHg 60%
    16:00 +1°C° 0 mm 3 m/S 762 mmHg 61%
    17:00 0°C° 0 mm 3 m/S 763 mmHg 64%
    18:00 -1°C° 0 mm 3 m/S 763 mmHg 67%
    19:00 -1°C° 0 mm 2 m/S 763 mmHg 70%
    20:00 -2°C° 0 mm 2 m/S 763 mmHg 71%
    21:00 -2°C° 0 mm 2 m/S 763 mmHg 73%
    22:00 -3°C° 0 mm 2 m/S 764 mmHg 75%
    23:00 -3°C° 0 mm 2 m/S 763 mmHg 75%

    22 Februar, Donnerstag

    Zeit Temperatur Niederschläge Wind Luftdruck Luftfeuchtigkeit
    00:00 -4°C° 0 mm 2 m/S 763 mmHg 76%
    01:00 -4°C° 0 mm 2 m/S 763 mmHg 76%
    02:00 -4°C° 0 mm 2 m/S 763 mmHg 76%
    03:00 -4°C° 0 mm 2 m/S 763 mmHg 76%
    04:00 -5°C° 0 mm 2 m/S 763 mmHg 76%
    05:00 -5°C° 0 mm 2 m/S 763 mmHg 76%
    06:00 -5°C° 0 mm 2 m/S 762 mmHg 76%
    07:00 -5°C° 0 mm 2 m/S 762 mmHg 76%
    08:00 -5°C° 0 mm 3 m/S 762 mmHg 69%
    09:00 -4°C° 0 mm 3 m/S 762 mmHg 62%
    10:00 -3°C° 0 mm 4 m/S 762 mmHg 55%
    11:00 -2°C° 0 mm 4 m/S 762 mmHg 51%
    12:00 -1°C° 0 mm 4 m/S 762 mmHg 48%
    13:00 0°C° 0 mm 5 m/S 761 mmHg 44%
    14:00 0°C° 0 mm 5 m/S 761 mmHg 45%
    15:00 -1°C° 0 mm 5 m/S 761 mmHg 46%
    16:00 -1°C° 0 mm 5 m/S 760 mmHg 46%
    17:00 -2°C° 0 mm 4 m/S 761 mmHg 52%
    18:00 -3°C° 0 mm 4 m/S 761 mmHg 57%
    19:00 -4°C° 0 mm 3 m/S 761 mmHg 62%
    20:00 -5°C° 0 mm 3 m/S 761 mmHg 64%
    21:00 -5°C° 0 mm 3 m/S 761 mmHg 67%
    22:00 -6°C° 0 mm 3 m/S 761 mmHg 69%
    23:00 -6°C° 0 mm 3 m/S 761 mmHg 71%

    23 Februar, Freitag

    Zeit Temperatur Niederschläge Wind Luftdruck Luftfeuchtigkeit
    00:00 -6°C° 0 mm 3 m/S 761 mmHg 73%
    01:00 -6°C° 0 mm 3 m/S 760 mmHg 75%
    02:00 -6°C° 0 mm 3 m/S 760 mmHg 76%
    03:00 -5°C° 0 mm 2 m/S 760 mmHg 77%
    04:00 -5°C° 0 mm 2 m/S 760 mmHg 79%
    05:00 -5°C° 0 mm 2 m/S 760 mmHg 79%
    06:00 -6°C° 0 mm 3 m/S 761 mmHg 80%
    07:00 -6°C° 0 mm 3 m/S 761 mmHg 81%
    08:00 -5°C° 0 mm 4 m/S 761 mmHg 74%
    09:00 -4°C° 0 mm 4 m/S 761 mmHg 68%
    10:00 -4°C° 0 mm 5 m/S 762 mmHg 61%
    11:00 -4°C° 0 mm 5 m/S 762 mmHg 55%
    12:00 -4°C° 0 mm 5 m/S 762 mmHg 48%
    13:00 -4°C° 0 mm 5 m/S 762 mmHg 42%
    14:00 -4°C° 0 mm 5 m/S 762 mmHg 40%
    15:00 -4°C° 0 mm 5 m/S 762 mmHg 38%
    16:00 -4°C° 0 mm 6 m/S 761 mmHg 36%
    17:00 -5°C° 0 mm 5 m/S 762 mmHg 41%
    18:00 -7°C° 0 mm 4 m/S 762 mmHg 46%
    19:00 -8°C° 0 mm 4 m/S 762 mmHg 52%
    20:00 -8°C° 0 mm 4 m/S 762 mmHg 55%
    21:00 -8°C° 0 mm 4 m/S 763 mmHg 58%
    22:00 -8°C° 0 mm 4 m/S 763 mmHg 61%
    23:00 -8°C° 0 mm 4 m/S 763 mmHg 62%
    Mehr zeigen